Location: Presov
(49.0000°N, 21.2500°E)
Time: 06:17:11
(UTC+02:00)

Transit 2A Rocket - Pass Details

Date: 16 April 2021
Orbit: 594 x 909 km, 66.7° (Epoch: 07 May)

Event Time Altitude Azimuth Distance (km) Brightness Sun altitude
Rises 15:38:28 0° 170° (S) 2,970 8.3 35.8°
Reaches altitude 10° 15:41:29 10° 150° (SSE) 2,015 7.3 35.3°
Maximum altitude 15:44:21 17° 110° (ESE) 1,579 6.5 34.9°
Drops below altitude 10° 15:47:09 10° 70° (ENE) 1,957 6.7 34.5°
Sets 15:50:01 0° 50° (NE) 2,847 7.5 34.1°
